EA2MKR Weather Reports


time (UTC)temp
F
wind
direction
speed
knots
gust
knots
rain 1hr
in
rain 24hr
in
rain mn
in
humidity
%
barometer
mb
20260507114545 65 14 2.6 10.4 0.00 0.01 0.01 62 948.8
20260507114502 65 75 1.7 10.4 0.00 0.01 0.01 60 948.8
20260507114045 65 295 2.6 10.4 0.00 0.01 0.01 64 948.9
20260507114002 65 336 3.5 10.4 0.00 0.01 0.01 64 948.9
20260507113545 65 47 4.3 8.7 0.00 0.01 0.01 62 948.8
20260507113503 65 275 5.2 8.7 0.00 0.01 0.01 62 948.9
20260507113211 65 21 4.3 6.1 0.00 0.01 0.01 65 948.9
20260507112545 64 336 4.3 8.7 0.00 0.01 0.01 64 948.8
20260507112502 64 320 4.3 8.7 0.00 0.01 0.01 64 948.9
20260507112045 64 16 6.1 8.7 0.00 0.01 0.01 63 949.0
20260507112002 64 358 5.2 8.7 0.00 0.01 0.01 65 949.0
20260507111545 64 310 3.5 8.7 0.00 0.01 0.01 63 949.0
20260507111503 64 285 2.6 8.7 0.00 0.01 0.01 64 948.9
20260507111211 64 309 2.6 8.7 0.00 0.01 0.01 66 949.0
20260507110711 63 312 2.6 6.1 0.00 0.01 0.01 65 949.0
20260507110046 63 313 2.6 6.1 0.00 0.01 0.01 65 949.1
20260507110002 63 314 2.6 6.1 0.00 0.01 0.01 65 949.0
20260507105711 63 288 0.9 6.1 0.00 0.01 0.01 64 949.1
20260507105045 63 306 5.2 6.1 0.00 0.01 0.01 65 949.1
20260507105002 63 313 5.2 6.1 0.00 0.01 0.01 65 949.1
20260507104544 63 312 1.7 6.1 0.00 0.01 0.01 68 949.1
20260507104503 63 79 0.0 6.1 0.00 0.01 0.01 68 949.1
20260507104044 62 303 2.6 6.1 0.00 0.01 0.01 65 949.2
20260507104003 62 303 3.5 6.1 0.00 0.01 0.01 66 949.2
20260507103544 62 288 3.5 5.2 0.00 0.01 0.01 65 949.2
20260507103502 62 258 3.5 5.2 0.00 0.01 0.01 68 949.3
20260507103044 62 272 1.7 3.5 0.00 0.01 0.01 66 949.3
20260507103003 62 269 1.7 3.5 0.00 0.01 0.01 66 949.3
20260507102543 62 221 0.9 2.6 0.00 0.01 0.01 69 949.3
20260507102502 61 234 0.9 2.6 0.00 0.01 0.01 69 949.2
20260507102044 61 319 0.9 5.2 0.00 0.01 0.01 66 949.3
20260507102002 61 299 0.9 5.2 0.00 0.01 0.01 66 949.3
20260507101711 61 286 0.9 5.2 0.00 0.01 0.01 67 949.4
20260507101043 60 282 2.6 6.1 0.00 0.01 0.01 68 949.5
20260507101002 60 295 1.7 6.1 0.00 0.01 0.01 68 949.5
20260507100543 60 240 3.5 6.1 0.00 0.01 0.01 70 949.6
20260507100502 60 274 3.5 6.1 0.00 0.01 0.01 71 949.6
20260507100044 59 271 1.7 6.1 0.00 0.01 0.01 69 949.6
20260507100002 59 309 2.6 6.1 0.00 0.01 0.01 69 949.6
20260507095543 59 331 1.7 5.2 0.00 0.01 0.01 71 949.7
20260507095502 59 44 1.7 5.2 0.00 0.01 0.01 70 949.7
20260507095043 59 336 3.5 5.2 0.00 0.01 0.01 70 949.7
20260507095002 59 323 2.6 5.2 0.00 0.01 0.01 70 949.8
20260507094543 59 212 1.7 4.3 0.00 0.01 0.01 71 949.8
20260507094502 59 261 1.7 6.1 0.00 0.01 0.01 71 949.8
20260507094043 59 262 1.7 6.1 0.00 0.01 0.01 74 949.9
20260507094001 58 288 2.6 6.1 0.00 0.01 0.01 74 949.8
20260507093543 58 234 1.7 6.1 0.00 0.01 0.01 71 949.8
20260507093503 58 220 1.7 5.2 0.00 0.01 0.01 73 949.8
20260507093042 58 289 2.6 5.2 0.00 0.01 0.01 71 949.9
20260507093002 58 231 2.6 5.2 0.00 0.01 0.01 72 949.9
20260507092542 57 248 1.7 5.2 0.00 0.01 0.01 75 949.9
20260507092502 57 289 1.7 5.2 0.00 0.01 0.01 76 949.9
20260507092211 57 264 1.7 5.2 0.00 0.01 0.01 75 949.9
20260507091542 56 248 1.7 5.2 0.00 0.01 0.01 75 950.0
20260507091502 56 279 1.7 5.2 0.00 0.01 0.01 73 950.0
20260507091042 56 226 1.7 5.2 0.00 0.01 0.01 76 950.0
20260507091003 56 268 1.7 5.2 0.00 0.01 0.01 76 949.9
20260507090542 55 214 2.6 5.2 0.00 0.01 0.01 76 949.9
20260507090503 55 224 2.6 5.2 0.00 0.01 0.01 76 950.0
20260507090042 55 290 3.5 4.3 0.00 0.01 0.01 76 949.9
20260507090002 55 258 3.5 4.3 0.00 0.01 0.01 76 950.0
20260507085541 54 237 2.6 4.3 0.00 0.01 0.01 78 950.0
20260507085503 54 248 2.6 4.3 0.00 0.01 0.01 78 950.0
20260507085041 54 295 1.7 4.3 0.00 0.01 0.01 82 950.0
20260507085002 53 292 1.7 4.3 0.00 0.01 0.01 80 950.0
20260507084542 53 278 2.6 4.3 0.00 0.01 0.01 81 950.0
20260507084503 53 279 3.5 4.3 0.00 0.01 0.01 81 950.0
20260507084212 53 285 2.6 3.5 0.00 0.01 0.01 83 950.0
20260507083710 53 275 0.0 1.7 0.00 0.01 0.01 86 950.0
20260507083041 52 268 0.0 0.0 0.00 0.01 0.01 87 950.0
20260507083003 52 268 0.0 0.0 0.00 0.01 0.01 87 950.0
20260507082541 51 269 0.0 0.0 0.00 0.01 0.01 90 950.0
20260507082502 51 269 0.0 0.0 0.00 0.01 0.01 90 950.0
20260507082041 50 269 0.0 0.0 0.00 0.01 0.01 92 950.0
20260507082002 50 269 0.0 0.0 0.00 0.01 0.01 92 950.0
20260507081541 49 269 0.0 0.0 0.00 0.01 0.01 93 950.0
20260507081502 49 269 0.0 0.0 0.00 0.01 0.01 94 950.1
20260507081211 48 269 0.0 0.0 0.00 0.01 0.01 95 950.0
20260507080541 47 269 0.0 1.7 0.00 0.01 0.01 96 950.0
20260507080503 47 269 0.0 1.7 0.00 0.01 0.01 96 950.1
20260507080041 47 269 0.0 1.7 0.00 0.01 0.01 96 950.1
20260507080003 47 269 0.0 1.7 0.00 0.01 0.01 96 950.1
20260507075711 47 268 0.9 1.7 0.00 0.01 0.01 97 950.1
20260507075041 46 276 0.0 0.0 0.00 0.01 0.01 97 950.1
20260507075003 46 282 0.0 0.0 0.00 0.01 0.01 97 950.1
20260507074540 46 283 0.0 0.9 0.00 0.01 0.01 97 950.1
20260507074502 46 283 0.0 0.9 0.00 0.01 0.01 97 950.1
20260507074040 45 283 0.0 1.7 0.00 0.01 0.01 97 950.1
20260507074002 45 283 0.0 1.7 0.00 0.01 0.01 97 950.2
20260507073540 44 282 0.0 1.7 0.00 0.01 0.01 96 950.2
20260507073502 44 282 0.0 1.7 0.00 0.01 0.01 96 950.2
20260507073040 44 259 1.7 1.7 0.00 0.01 0.01 96 950.3
20260507073002 43 259 1.7 1.7 0.00 0.01 0.01 96 950.3
20260507072711 43 259 0.0 1.7 0.00 0.01 0.01 96 950.3
20260507072040 43 259 0.9 1.7 0.00 0.01 0.01 96 950.2
20260507072002 43 259 0.9 1.7 0.00 0.01 0.01 96 950.2
20260507071540 42 259 0.0 1.7 0.00 0.01 0.01 96 950.1
20260507071501 42 259 0.0 1.7 0.00 0.01 0.01 96 950.1
20260507071211 42 259 0.9 1.7 0.00 0.01 0.01 96 950.2
20260507070540 42 171 0.0 0.0 0.00 0.01 0.01 96 950.1
20260507070502 42 171 0.0 0.0 0.00 0.01 0.01 96 950.1
20260507070039 42 171 0.0 0.0 0.00 0.01 0.01 96 950.1
20260507070003 42 171 0.0 0.0 0.00 0.01 0.01 97 950.1
20260507065539 42 171 0.0 0.0 0.00 0.01 0.01 97 950.1
20260507065503 42 171 0.0 0.0 0.00 0.01 0.01 97 950.1
20260507065039 42 168 0.0 0.9 0.00 0.01 0.01 97 950.2
20260507065003 41 168 0.0 0.9 0.00 0.01 0.01 97 950.1
20260507064539 41 168 0.0 0.9 0.00 0.01 0.01 97 950.1
20260507064501 41 168 0.0 0.9 0.00 0.01 0.01 97 950.1
20260507064039 41 168 0.0 0.9 0.00 0.01 0.01 97 950.1
20260507064003 41 168 0.0 0.9 0.00 0.01 0.01 97 950.1
20260507063539 40 168 0.0 0.9 0.00 0.01 0.01 97 950.2
20260507063502 40 168 0.0 0.9 0.00 0.01 0.01 97 950.2
20260507063039 39 168 0.0 0.0 0.00 0.01 0.01 97 950.1
20260507063002 39 168 0.0 0.0 0.00 0.01 0.01 97 950.1
20260507062538 39 168 0.0 0.0 0.00 0.01 0.01 97 950.1
20260507062502 39 168 0.0 0.0 0.00 0.01 0.01 97 950.1
20260507062039 39 166 0.0 0.0 0.00 0.01 0.01 97 950.1
20260507062003 39 166 0.0 0.0 0.00 0.01 0.01 97 950.1
20260507061538 39 166 0.0 0.0 0.00 0.01 0.01 97 950.3
20260507061504 39 166 0.0 0.0 0.00 0.01 0.01 97 950.1
20260507061038 39 166 0.0 0.0 0.00 0.01 0.01 97 950.2
20260507061002 39 166 0.0 0.0 0.00 0.01 0.01 97 950.2
20260507060538 38 166 0.0 0.0 0.00 0.01 0.01 97 950.2
20260507060503 38 166 0.0 0.0 0.00 0.01 0.01 97 950.3
20260507060038 38 169 0.0 0.0 0.00 0.01 0.01 97 950.3
20260507060002 38 169 0.0 0.0 0.00 0.01 0.01 97 950.3
20260507055538 38 169 0.0 0.0 0.00 0.01 0.01 97 950.1
20260507055503 38 169 0.0 0.0 0.00 0.01 0.01 97 950.2
20260507055038 38 169 0.0 0.0 0.00 0.01 0.01 97 950.2
20260507055002 38 169 0.0 0.0 0.00 0.01 0.01 97 950.2
20260507054538 38 169 0.0 0.0 0.00 0.01 0.01 97 950.1
20260507054503 38 169 0.0 0.0 0.00 0.01 0.01 97 950.1
20260507054038 38 169 0.0 0.0 0.00 0.01 0.01 97 950.1
20260507054003 38 169 0.0 0.0 0.00 0.01 0.01 97 950.2
20260507053711 37 169 0.0 0.0 0.00 0.01 0.01 97 950.1
20260507053038 37 169 0.0 0.0 0.00 0.01 0.01 97 950.1
20260507053003 37 169 0.0 0.0 0.00 0.01 0.01 97 950.1
20260507052538 37 169 0.0 0.0 0.00 0.01 0.01 97 950.2
20260507052503 37 169 0.0 0.0 0.00 0.01 0.01 97 950.1
20260507052038 37 169 0.0 0.0 0.00 0.01 0.01 97 950.0
20260507052003 37 169 0.0 0.0 0.00 0.01 0.01 97 950.0
20260507051537 37 169 0.0 0.0 0.01 0.01 0.01 97 950.0
20260507051503 37 169 0.0 0.0 0.01 0.01 0.01 97 950.0
20260507051037 37 169 0.0 0.0 0.01 0.01 0.01 97 949.9
20260507051002 37 169 0.0 0.0 0.01 0.01 0.01 97 950.0
20260507050537 37 169 0.0 0.0 0.01 0.01 0.01 97 950.0
20260507050503 37 169 0.0 0.0 0.01 0.01 0.01 97 950.1
20260507050037 37 169 0.0 0.0 0.01 0.01 0.01 97 950.0
20260507050002 37 169 0.0 0.0 0.01 0.00 0.01 97 950.0
20260507045537 37 169 0.0 0.0 0.01 0.00 0.01 96 949.9
20260507045502 37 169 0.0 0.0 0.01 0.00 0.01 96 949.9
20260507045036 37 169 0.0 0.0 0.01 0.00 0.01 96 949.9
20260507045002 37 169 0.0 0.0 0.01 0.00 0.01 96 950.0
20260507044711 37 169 0.0 0.0 0.01 0.00 0.01 96 950.0
20260507044034 37 169 0.0 0.0 0.01 0.00 0.01 96 950.0
20260507044002 37 169 0.0 0.0 0.01 0.00 0.01 96 950.0
20260507043502 38 169 0.0 0.0 0.01 0.00 0.01 97 949.9
20260507043003 37 169 0.0 0.0 0.01 0.00 0.01 96 950.0
20260507042711 37 169 0.0 0.0 0.01 0.00 0.01 96 950.0
20260507042003 37 169 0.0 0.9 0.01 0.00 0.01 96 950.0
20260507041530 37 169 0.0 0.9 0.00 0.00 0.00 96 950.0
20260507041502 37 169 0.0 0.0 0.00 0.00 0.00 96 950.0
20260507041002 37 169 0.0 0.9 0.00 0.00 0.00 96 949.9
20260507040502 38 169 0.0 0.9 0.00 0.00 0.00 96 950.0
20260507040002 38 166 0.0 0.9 0.00 0.00 0.00 96 949.9
20260507035502 38 165 0.0 0.0 0.00 0.00 0.00 96 949.9
20260507035212 38 165 0.0 0.0 0.00 0.00 0.00 96 950.1
20260507034502 38 165 0.0 0.0 0.00 0.00 0.00 96 950.0
20260507034031 37 165 0.0 0.0 0.00 0.00 0.00 96 950.0
20260507034002 38 165 0.0 0.0 0.00 0.00 0.00 96 950.0
20260507033503 38 165 0.0 0.0 0.00 0.00 0.00 96 950.0
20260507033003 38 165 0.0 0.0 0.00 0.00 0.00 95 949.9
20260507032502 38 165 0.0 0.0 0.00 0.00 0.00 95 950.0
20260507032031 38 165 0.0 0.0 0.00 0.00 0.00 95 950.0
20260507032003 39 165 0.0 0.0 0.00 0.00 0.00 95 950.0
20260507031503 39 165 0.0 0.0 0.00 0.00 0.00 96 950.0
20260507031003 39 165 0.0 0.9 0.00 0.00 0.00 96 949.9
20260507030502 40 165 0.0 0.9 0.00 0.00 0.00 96 949.9
20260507030003 39 165 0.0 0.0 0.00 0.00 0.00 96 949.9
20260507025502 40 165 0.0 0.9 0.00 0.00 0.00 96 949.9
20260507025002 39 165 0.0 0.9 0.00 0.00 0.00 96 949.9
20260507024502 39 243 0.0 0.9 0.00 0.00 0.00 95 950.0
20260507024210 40 243 0.0 1.7 0.00 0.00 0.00 95 950.0
20260507023503 40 243 0.0 1.7 0.00 0.00 0.00 95 950.0
20260507023002 40 200 0.0 0.9 0.00 0.00 0.00 96 949.9
20260507022502 40 200 0.0 0.0 0.00 0.00 0.00 96 949.8
20260507022002 40 200 0.0 0.0 0.00 0.00 0.00 95 949.7
20260507021503 40 200 0.0 0.0 0.00 0.00 0.00 95 949.8
20260507021002 40 200 0.0 0.9 0.00 0.00 0.00 95 949.9
20260507020502 40 200 0.0 0.9 0.00 0.00 0.00 95 950.0
20260507020003 40 200 0.0 0.9 0.00 0.00 0.00 95 950.0
20260507015502 40 200 0.0 0.9 0.00 0.00 0.00 95 950.0
20260507015002 40 200 0.0 0.9 0.00 0.00 0.00 94 950.0
20260507014503 40 200 0.0 0.9 0.00 0.00 0.00 93 950.0
20260507014212 42 149 0.0 0.9 0.00 0.00 0.00 96 950.1
20260507013502 41 157 0.0 0.0 0.00 0.00 0.00 94 950.0
20260507013002 41 158 0.0 0.9 0.00 0.00 0.00 94 950.1
20260507012502 41 152 0.0 0.9 0.00 0.00 0.00 94 950.1
20260507012003 41 152 0.0 0.9 0.00 0.00 0.00 93 950.0
20260507011503 42 152 0.0 0.9 0.00 0.00 0.00 94 950.1
20260507011003 43 152 0.0 0.0 0.00 0.00 0.00 95 950.1
20260507010502 42 152 0.0 0.0 0.00 0.00 0.00 95 950.2
20260507010003 42 152 0.0 0.0 0.00 0.00 0.00 94 950.2
20260507005502 42 152 0.0 0.9 0.00 0.00 0.00 94 950.3
20260507005002 42 152 0.0 0.9 0.00 0.00 0.00 94 950.3
20260507004502 42 152 0.0 0.0 0.00 0.00 0.00 94 950.4
20260507004002 43 152 0.0 0.0 0.00 0.00 0.00 94 950.4
20260507003500 43 152 0.0 0.0 0.00 0.00 0.00 95 950.4
20260507002957 43 151 0.0 0.0 0.00 0.00 0.00 95 950.4
20260507002431 43 151 0.0 0.0 0.00 0.00 0.00 94 950.5
20260507002141 43 152 0.0 0.0 0.00 0.00 0.00 95 950.5
20260507001431 43 152 0.0 0.0 0.00 0.00 0.00 94 950.7
20260507000931 43 151 0.0 0.0 0.00 0.00 0.00 94 950.6
20260507000431 43 151 0.0 0.0 0.00 0.00 0.00 94 950.6
20260506235930 43 151 0.0 0.0 0.00 0.00 0.00 94 950.6
20260506235430 43 151 0.0 0.0 0.00 0.00 0.00 94 950.7
20260506234930 43 212 0.0 0.0 0.00 0.00 0.00 94 950.6
20260506234431 43 212 0.0 0.9 0.00 0.00 0.00 94 950.7
20260506233930 43 212 0.0 0.9 0.00 0.00 0.00 93 950.7
20260506233430 43 237 0.0 1.7 0.00 0.00 0.00 93 950.6
20260506232930 43 237 0.0 1.7 0.00 0.00 0.00 93 950.7
20260506232638 43 178 0.0 0.9 0.00 0.00 0.00 93 950.7
20260506231930 43 142 0.0 0.0 0.00 0.00 0.00 92 950.6
20260506231429 43 142 0.0 0.9 0.00 0.00 0.00 92 950.7
20260506230929 44 141 0.0 0.9 0.00 0.00 0.00 91 950.7
20260506230430 44 154 0.0 0.0 0.00 0.00 0.00 92 950.6
20260506225929 44 155 0.0 0.9 0.00 0.00 0.00 91 950.7
20260506225430 44 155 0.0 0.9 0.00 0.00 0.00 92 950.9
20260506224929 45 155 0.0 0.9 0.00 0.00 0.00 91 951.0
20260506224637 45 155 0.0 0.9 0.00 0.00 0.00 92 951.0
20260506223929 45 155 0.0 0.9 0.00 0.00 0.00 92 951.0
20260506223429 44 155 0.0 0.0 0.00 0.00 0.00 90 951.0
20260506223138 45 157 0.0 0.0 0.00 0.00 0.00 90 950.9
20260506222428 45 155 0.0 0.9 0.00 0.00 0.00 89 951.0
20260506221928 46 155 0.9 2.6 0.00 0.00 0.00 87 951.0
20260506221637 46 158 1.7 2.6 0.00 0.00 0.00 90 951.0
20260506220928 46 128 0.0 1.7 0.00 0.00 0.00 90 951.0
20260506220429 46 128 0.0 1.7 0.00 0.00 0.00 88 951.0
20260506215928 47 131 0.0 1.7 0.00 0.00 0.00 87 951.1
20260506215637 47 134 0.0 3.5 0.00 0.00 0.00 88 951.1
20260506215136 47 125 0.9 3.5 0.00 0.00 0.00 88 951.0
20260506214427 47 180 0.0 2.6 0.00 0.00 0.00 87 951.1
20260506213927 48 117 0.9 1.7 0.00 0.00 0.00 87 951.0
20260506213427 48 141 0.9 3.5 0.00 0.00 0.00 88 950.9
20260506212928 47 128 0.9 3.5 0.00 0.00 0.00 88 950.9
20260506212635 47 137 0.0 1.7 0.00 0.00 0.00 88 950.9
20260506211927 47 144 0.0 0.9 0.00 0.00 0.00 88 951.0
20260506211428 47 144 0.0 0.9 0.00 0.00 0.00 88 951.0
20260506210926 48 125 0.0 3.5 0.00 0.00 0.00 87 951.0
20260506210427 48 124 0.9 3.5 0.00 0.00 0.00 87 951.0
20260506210136 48 134 1.7 3.5 0.00 0.00 0.00 88 951.1
20260506205635 47 135 0.9 2.6 0.00 0.00 0.00 88 951.1
20260506204927 47 125 1.7 2.6 0.00 0.00 0.00 87 951.0
20260506204427 47 128 1.7 2.6 0.00 0.00 0.00 86 951.0
20260506203926 48 140 0.0 1.7 0.00 0.00 0.00 85 951.0
20260506203426 48 138 0.9 1.7 0.00 0.00 0.00 84 950.9
20260506202927 49 138 0.0 1.7 0.00 0.00 0.00 84 950.9
20260506202634 49 111 0.0 3.5 0.00 0.00 0.00 84 950.9
20260506201923 49 124 0.9 3.5 0.00 0.00 0.00 84 950.9
20260506201423 49 121 0.0 1.7 0.00 0.00 0.00 83 950.9
20260506200925 49 120 0.9 1.7 0.00 0.00 0.00 84 950.9
20260506200921 49 120 0.9 1.7 0.00 0.00 0.00 84 950.8
20260506200419 48 118 0.0 0.9 0.00 0.00 0.00 84 950.8
20260506200127 48 118 0.0 0.9 0.00 0.00 0.00 84 950.8
20260506195411 49 118 0.0 3.5 0.00 0.00 0.00 83 950.7
20260506194903 49 118 0.0 3.5 0.00 0.00 0.00 82 950.7
20260506194426 49 100 0.9 2.6 0.00 0.00 0.00 82 950.7
20260506194402 49 99 0.9 2.6 0.00 0.00 0.00 82 950.7
20260506193925 50 97 0.9 2.6 0.00 0.00 0.00 81 950.7
20260506193902 50 102 0.9 2.6 0.00 0.00 0.00 81 950.6
20260506193426 50 133 0.9 3.5 0.00 0.00 0.00 81 950.6
20260506193402 50 133 1.7 3.5 0.00 0.00 0.00 81 950.6
20260506193110 50 138 0.9 3.5 0.00 0.00 0.00 80 950.6
20260506192610 50 127 0.9 5.2 0.00 0.00 0.00 79 950.6
20260506192110 51 116 2.6 5.2 0.00 0.00 0.00 78 950.4
20260506191425 51 111 1.7 6.1 0.00 0.00 0.00 77 950.4
20260506191403 51 97 1.7 6.1 0.00 0.00 0.00 77 950.4
20260506190924 51 102 2.6 6.1 0.00 0.00 0.00 77 950.4
20260506190855 51 110 1.7 6.1 0.00 0.00 0.00 77 950.4
20260506190424 51 134 1.7 6.1 0.00 0.00 0.00 77 950.4
20260506190350 51 137 1.7 6.1 0.00 0.00 0.00 77 950.4
20260506185924 52 103 1.7 6.1 0.00 0.00 0.00 76 950.4
20260506185842 52 123 2.6 6.1 0.00 0.00 0.00 76 950.4
20260506185549 53 121 1.7 4.3 0.00 0.00 0.00 76 950.3
20260506184925 53 127 0.9 7.8 0.00 0.00 0.00 75 950.3
20260506184838 53 127 0.9 7.8 0.00 0.00 0.00 75 950.3
20260506184424 53 109 2.6 7.8 0.00 0.00 0.00 76 950.3
20260506184338 53 100 1.7 5.2 0.00 0.00 0.00 76 950.2
20260506184043 53 137 1.7 4.3 0.00 0.00 0.00 76 950.2
20260506183424 54 118 2.6 4.3 0.00 0.00 0.00 74 950.2
20260506183335 54 162 1.7 4.3 0.00 0.00 0.00 74 950.2
20260506182924 54 134 1.7 3.5 0.00 0.00 0.00 72 950.2
20260506182832 54 130 1.7 3.5 0.00 0.00 0.00 72 950.1
20260506182424 55 121 0.9 3.5 0.00 0.00 0.00 71 950.1
20260506182330 55 123 0.9 3.5 0.00 0.00 0.00 72 950.1
20260506181924 55 106 1.7 4.3 0.00 0.00 0.00 71 950.2
20260506181831 55 106 1.7 4.3 0.00 0.00 0.00 71 950.2
20260506181424 55 127 1.7 6.1 0.00 0.00 0.00 72 950.1
20260506181331 55 109 0.9 6.1 0.00 0.00 0.00 72 950.1
20260506180923 55 113 1.7 6.1 0.00 0.00 0.00 72 950.1
20260506180831 55 104 1.7 6.1 0.00 0.00 0.00 72 950.1
20260506180423 55 114 0.9 4.3 0.00 0.00 0.00 74 950.1
20260506180331 55 125 0.9 4.3 0.00 0.00 0.00 74 950.1
20260506180040 54 114 0.9 6.1 0.00 0.00 0.00 75 950.2
20260506175423 54 161 1.7 6.1 0.00 0.00 0.00 77 950.1
20260506175331 53 140 1.7 6.1 0.00 0.00 0.00 77 950.1
20260506174923 53 134 2.6 7.8 0.00 0.00 0.00 77 950.0
20260506174830 53 202 2.6 7.8 0.00 0.00 0.00 77 950.1
20260506174423 53 106 1.7 7.8 0.00 0.00 0.00 76 950.1
20260506174332 53 113 1.7 7.8 0.00 0.00 0.00 76 950.1
20260506173922 53 121 0.9 5.2 0.00 0.00 0.00 76 950.1
20260506173831 53 127 0.9 5.2 0.00 0.00 0.00 76 950.1
20260506173422 53 131 1.7 5.2 0.00 0.00 0.00 75 950.1
20260506173331 53 213 2.6 5.2 0.00 0.00 0.00 75 950.1
20260506172922 53 121 1.7 5.2 0.00 0.00 0.00 74 950.1
20260506172831 53 127 0.9 5.2 0.00 0.00 0.00 74 950.1
20260506172422 54 144 2.6 5.2 0.00 0.00 0.00 73 950.2
20260506172332 54 86 2.6 5.2 0.00 0.00 0.00 73 950.2
20260506171923 54 133 1.7 7.8 0.00 0.00 0.00 72 950.1
20260506171831 55 99 1.7 7.8 0.00 0.00 0.00 73 950.2
20260506171422 55 133 1.7 9.6 0.00 0.00 0.00 72 950.2
20260506171332 55 87 1.7 9.6 0.00 0.00 0.00 71 950.2
20260506170922 56 92 5.2 9.6 0.00 0.00 0.00 71 950.1
20260506170828 56 89 3.5 10.4 0.00 0.00 0.00 71 950.1
20260506170422 56 86 4.3 11.3 0.00 0.00 0.00 69 950.1
20260506170328 56 100 6.1 11.3 0.00 0.00 0.00 69 950.1
20260506165921 56 104 7.8 11.3 0.00 0.00 0.00 67 950.0
20260506165826 56 100 7.0 11.3 0.00 0.00 0.00 68 950.1
20260506165534 57 114 5.2 11.3 0.00 0.00 0.00 69 950.0
20260506164922 57 92 5.2 9.6 0.00 0.00 0.00 68 950.0
20260506164824 57 110 4.3 9.6 0.00 0.00 0.00 68 950.0
20260506164421 57 114 1.7 9.6 0.00 0.00 0.00 68 949.9
20260506164324 57 118 3.5 9.6 0.00 0.00 0.00 69 949.9
20260506164032 57 97 1.7 9.6 0.00 0.00 0.00 69 949.8
20260506163421 57 141 0.9 9.6 0.00 0.00 0.00 71 949.8
20260506163325 56 214 2.6 9.6 0.00 0.00 0.00 71 949.9
20260506162921 56 86 2.6 8.7 0.00 0.00 0.00 72 949.8
20260506162823 56 76 1.7 7.8 0.00 0.00 0.00 71 949.8
20260506162421 56 200 0.0 5.2 0.00 0.00 0.00 73 949.8
20260506162324 56 117 0.9 6.1 0.00 0.00 0.00 73 949.9
20260506161921 56 107 0.9 6.1 0.00 0.00 0.00 73 949.9
20260506161823 55 147 0.9 6.1 0.00 0.00 0.00 72 949.9
20260506161421 56 125 4.3 6.1 0.00 0.00 0.00 74 949.9
20260506161323 55 86 4.3 6.1 0.00 0.00 0.00 74 949.9
20260506160921 55 133 0.9 8.7 0.00 0.00 0.00 73 950.0
20260506160823 55 158 1.7 8.7 0.00 0.00 0.00 73 950.0
20260506160420 55 94 1.7 12.2 0.00 0.00 0.00 73 950.0
20260506160323 55 121 1.7 12.2 0.00 0.00 0.00 72 950.0
20260506160031 56 111 6.1 12.2 0.00 0.00 0.00 73 949.9
20260506155420 55 107 1.7 11.3 0.00 0.00 0.00 76 950.0
20260506155323 55 76 2.6 11.3 0.00 0.00 0.00 77 950.0
20260506154921 55 102 6.1 11.3 0.00 0.00 0.00 76 950.1
20260506154823 55 116 7.8 11.3 0.00 0.00 0.00 77 950.0
20260506154421 55 140 4.3 10.4 0.00 0.00 0.00 78 950.1
20260506154322 55 135 5.2 10.4 0.00 0.00 0.00 78 950.1
20260506153920 54 110 4.3 8.7 0.00 0.00 0.00 82 950.1
20260506153822 54 149 4.3 8.7 0.00 0.00 0.00 81 950.2
20260506153420 54 79 1.7 5.2 0.00 0.00 0.00 82 950.2
20260506153323 54 123 0.0 5.2 0.00 0.00 0.00 82 950.3
20260506152920 53 116 1.7 5.2 0.00 0.00 0.00 81 950.3
20260506152822 53 116 1.7 5.2 0.00 0.00 0.00 80 950.3
20260506152419 54 128 2.6 5.2 0.00 0.00 0.00 80 950.3
20260506152322 54 137 1.7 4.3 0.00 0.00 0.00 80 950.3
20260506151919 54 152 0.0 4.3 0.00 0.00 0.00 80 950.3
20260506151822 54 149 0.0 5.2 0.00 0.00 0.00 80 950.4
20260506151420 54 110 1.7 12.2 0.00 0.00 0.00 78 950.4
20260506151322 54 138 1.7 12.2 0.00 0.00 0.00 77 950.4
20260506150920 54 99 6.1 12.2 0.00 0.00 0.00 78 950.4
20260506150822 54 102 7.8 14.8 0.00 0.00 0.00 78 950.4
20260506150419 55 90 7.0 14.8 0.00 0.00 0.00 76 950.3
20260506150322 55 99 7.0 14.8 0.00 0.00 0.00 75 950.3
20260506145920 55 104 6.1 14.8 0.00 0.00 0.00 75 950.2
20260506145822 55 92 5.2 12.2 0.00 0.00 0.00 74 950.2
20260506145419 55 97 5.2 12.2 0.00 0.00 0.00 74 950.3
20260506145323 55 102 6.1 13.0 0.00 0.00 0.00 76 950.3
20260506144919 56 102 7.0 13.0 0.00 0.00 0.00 75 950.3
20260506144822 56 99 7.8 13.0 0.00 0.00 0.00 75 950.2
20260506144530 56 125 7.8 15.6 0.00 0.00 0.00 77 950.3
20260506143919 55 80 8.7 15.6 0.00 0.00 0.00 76 950.3
20260506143822 55 106 11.3 15.6 0.00 0.00 0.00 74 950.4
20260506143529 56 93 11.3 14.8 0.00 0.00 0.00 72 950.3
20260506143029 57 94 9.6 14.8 0.00 0.00 0.00 75 950.4
20260506142529 56 71 6.1 10.4 0.00 0.00 0.00 75 950.4
20260506141919 56 134 3.5 11.3 0.00 0.00 0.00 74 950.4
20260506141821 56 110 3.5 11.3 0.00 0.00 0.00 75 950.5
20260506141418 56 94 6.1 11.3 0.00 0.00 0.00 73 950.4
20260506141321 56 109 7.0 11.3 0.00 0.00 0.00 73 950.4
20260506140918 56 116 6.1 11.3 0.00 0.01 0.00 74 950.5
20260506140821 56 86 7.8 11.3 0.00 0.02 0.00 73 950.4
20260506140419 56 90 3.5 10.4 0.00 0.02 0.00 73 950.5
20260506140320 56 117 2.6 10.4 0.00 0.02 0.00 73 950.5
20260506135918 57 107 6.1 10.4 0.00 0.03 0.00 71 950.6
20260506135820 57 102 4.3 10.4 0.00 0.04 0.00 73 950.6
20260506135418 57 85 7.0 10.4 0.00 0.04 0.00 75 950.7
20260506135320 57 97 5.2 9.6 0.00 0.04 0.00 74 950.6
20260506134917 56 117 4.3 9.6 0.00 0.06 0.00 74 950.7
20260506134821 55 106 4.3 9.6 0.00 0.06 0.00 75 950.6
20260506134418 55 100 4.3 9.6 0.00 0.09 0.00 74 950.6
20260506134320 55 142 3.5 9.6 0.00 0.09 0.00 74 950.7
20260506133918 55 127 4.3 9.6 0.00 0.09 0.00 76 950.6
20260506133820 55 96 6.1 9.6 0.00 0.09 0.00 75 950.7
20260506133418 55 106 4.3 8.7 0.00 0.09 0.00 74 950.6
20260506133320 54 110 3.5 8.7 0.00 0.09 0.00 73 950.6
20260506132917 54 147 3.5 8.7 0.00 0.09 0.00 73 950.6
20260506132820 54 124 2.6 8.7 0.00 0.09 0.00 75 950.6
20260506132418 54 110 3.5 9.6 0.00 0.09 0.00 73 950.7
20260506132320 54 85 3.5 9.6 0.00 0.09 0.00 73 950.6
20260506132028 54 94 4.3 10.4 0.00 0.09 0.00 73 950.7
20260506131417 55 137 3.5 10.4 0.00 0.09 0.00 75 950.6
20260506131320 55 97 4.3 10.4 0.00 0.09 0.00 74 950.6
20260506130917 55 96 5.2 9.6 0.00 0.09 0.00 75 950.6
20260506130820 55 123 5.2 9.6 0.00 0.09 0.00 74 950.6
20260506130416 55 107 3.5 6.1 0.00 0.09 0.00 76 950.6
20260506130319 55 110 2.6 6.1 0.00 0.09 0.00 75 950.5
20260506125915 55 117 1.7 8.7 0.00 0.09 0.00 75 950.5
20260506125819 55 106 1.7 8.7 0.00 0.09 0.00 74 950.5
20260506125417 55 147 4.3 8.7 0.00 0.09 0.00 73 950.5
20260506125319 55 106 4.3 8.7 0.00 0.09 0.00 73 950.6
20260506124917 55 107 2.6 6.1 0.00 0.09 0.00 74 950.4
20260506124819 55 106 2.6 6.1 0.00 0.09 0.00 73 950.4
20260506124416 55 121 2.6 5.2 0.00 0.09 0.00 73 950.4
20260506124319 55 124 2.6 5.2 0.00 0.09 0.00 75 950.4
20260506123916 55 111 0.9 6.1 0.00 0.09 0.00 75 950.4
20260506123819 55 145 1.7 6.1 0.00 0.09 0.00 72 950.5
20260506123416 55 140 3.5 6.1 0.00 0.09 0.00 73 950.5
20260506123319 55 125 3.5 6.1 0.00 0.09 0.00 73 950.5
20260506122916 55 131 1.7 6.1 0.00 0.09 0.00 74 950.4
20260506122819 55 138 0.9 6.1 0.00 0.09 0.00 72 950.4
20260506122416 55 109 3.5 6.1 0.00 0.09 0.00 73 950.4
20260506122319 55 138 3.5 6.1 0.00 0.09 0.00 73 950.5
20260506121915 55 94 3.5 5.2 0.00 0.09 0.00 73 950.4
20260506121819 55 86 2.6 5.2 0.00 0.09 0.00 72 950.4
20260506121415 55 116 0.9 6.1 0.00 0.09 0.00 76 950.5
20260506121318 55 97 0.0 6.1 0.00 0.09 0.00 74 950.5
20260506121026 55 123 0.9 6.1 0.00 0.09 0.00 73 950.5
20260506120415 54 117 1.7 5.2 0.00 0.09 0.00 74 950.5
20260506120318 54 124 1.7 5.2 0.00 0.09 0.00 75 950.5
20260506115915 54 107 0.9 5.2 0.00 0.09 0.00 73 950.6
20260506115818 54 104 1.7 5.2 0.00 0.09 0.00 73 950.6
20260506115415 54 125 1.7 6.1 0.00 0.09 0.00 72 950.6
20260506115318 54 152 0.9 6.1 0.00 0.09 0.00 74 950.6
20260506115026 54 116 1.7 9.6 0.00 0.09 0.00 75 950.6